TAY1MN LFPG-LFSB

Flight info

Callsign TAY1MN
Flight time 0h 42m
Altitude 31000
Route BUBLI DCT LUVAL DCT OKIPO DCT LUL G42 ARPUS
Aircraft B738/M-SDE2E3FGHIRWXY/LB1

Departure

Time 2026-05-03 20:38
Airport Charles de Gaulle International Airport (LFPG)

Arrival

Time 2026-05-03 21:21
Airport EuroAirport Basel–Mulhouse–Freiburg (LFSB)
Time Latitude Longitude Altitude Speed Heading
2026-05-03 20:15 49.01081 2.50264 353 ft 0 kts 266°
2026-05-03 20:22 49.01081 2.50266 353 ft 2 kts 266°
2026-05-03 20:22 49.01082 2.50305 362 ft 4 kts 269°
2026-05-03 20:23 49.01082 2.50346 362 ft 4 kts 274°
2026-05-03 20:23 49.01079 2.50386 353 ft 4 kts 288°
2026-05-03 20:23 49.01067 2.50417 361 ft 4 kts 340°
2026-05-03 20:23 49.01061 2.50420 353 ft 1 kts 355°
2026-05-03 20:27 49.01069 2.50419 361 ft 5 kts 355°
2026-05-03 20:27 49.01121 2.50412 361 ft 9 kts 354°
2026-05-03 20:28 49.01197 2.50402 353 ft 13 kts 356°
2026-05-03 20:28 49.01297 2.50391 353 ft 16 kts 356°
2026-05-03 20:28 49.01411 2.50409 360 ft 18 kts 40°
2026-05-03 20:28 49.01439 2.50594 353 ft 19 kts 85°
2026-05-03 20:29 49.01450 2.50795 356 ft 19 kts 85°
2026-05-03 20:29 49.01460 2.50993 356 ft 19 kts 85°
2026-05-03 20:29 49.01472 2.51202 358 ft 20 kts 85°
2026-05-03 20:29 49.01483 2.51426 353 ft 22 kts 85°
2026-05-03 20:30 49.01497 2.51670 353 ft 24 kts 84°
2026-05-03 20:30 49.01511 2.51920 353 ft 24 kts 86°
2026-05-03 20:30 49.01523 2.52174 353 ft 24 kts 85°
2026-05-03 20:30 49.01538 2.52429 353 ft 24 kts 85°
2026-05-03 20:31 49.01566 2.52615 355 ft 16 kts 53°
2026-05-03 20:31 49.01649 2.52707 356 ft 8 kts 44°
2026-05-03 20:31 49.01658 2.52798 356 ft 9 kts 66°
2026-05-03 20:31 49.01710 2.52885 353 ft 14 kts 45°
2026-05-03 20:32 49.01750 2.53036 353 ft 17 kts 85°
2026-05-03 20:32 49.01759 2.53218 357 ft 17 kts 86°
2026-05-03 20:32 49.01766 2.53338 353 ft 17 kts 84°
2026-05-03 20:32 49.01777 2.53514 355 ft 17 kts 85°
2026-05-03 20:33 49.01787 2.53702 357 ft 19 kts 85°
2026-05-03 20:33 49.01795 2.53859 356 ft 7 kts 85°
2026-05-03 20:33 49.01796 2.53874 353 ft 2 kts 85°
2026-05-03 20:33 49.01796 2.53876 353 ft 1 kts 85°
2026-05-03 20:34 49.01798 2.53915 353 ft 8 kts 85°
2026-05-03 20:34 49.01806 2.54050 353 ft 16 kts 85°
2026-05-03 20:34 49.01815 2.54231 356 ft 18 kts 85°
2026-05-03 20:34 49.01825 2.54423 353 ft 16 kts 85°
2026-05-03 20:35 49.01833 2.54586 353 ft 14 kts 85°
2026-05-03 20:35 49.01841 2.54731 353 ft 14 kts 85°
2026-05-03 20:35 49.01851 2.54891 353 ft 17 kts 84°
2026-05-03 20:35 49.01863 2.55097 358 ft 20 kts 85°
2026-05-03 20:36 49.01872 2.55288 353 ft 18 kts 85°
2026-05-03 20:36 49.01882 2.55481 353 ft 19 kts 85°
2026-05-03 20:36 49.01893 2.55622 360 ft 12 kts 70°
2026-05-03 20:36 49.01961 2.55669 358 ft 12 kts 354°
2026-05-03 20:37 49.02052 2.55656 353 ft 14 kts 354°
2026-05-03 20:37 49.02154 2.55643 353 ft 15 kts 355°
2026-05-03 20:37 49.02260 2.55631 353 ft 10 kts 355°
2026-05-03 20:37 49.02293 2.55593 355 ft 6 kts 264°
2026-05-03 20:38 49.02277 2.55311 360 ft 61 kts 265°
2026-05-03 20:38 49.02221 2.54286 359 ft 130 kts 265°
2026-05-03 20:38 49.02140 2.52650 512 ft 169 kts 265°
2026-05-03 20:38 49.02064 2.50783 1130 ft 182 kts 265°
2026-05-03 20:39 49.01988 2.48900 2128 ft 174 kts 263°
2026-05-03 20:39 49.01885 2.47020 2788 ft 187 kts 263°
2026-05-03 20:39 49.01758 2.44921 3116 ft 210 kts 263°
2026-05-03 20:39 49.01770 2.42545 3374 ft 241 kts 283°
2026-05-03 20:40 49.02698 2.40355 3997 ft 259 kts 320°
2026-05-03 20:40 49.04273 2.38905 4786 ft 268 kts 327°
2026-05-03 20:40 49.05898 2.37443 5622 ft 273 kts 326°
2026-05-03 20:40 49.07535 2.35931 6478 ft 277 kts 325°
2026-05-03 20:41 49.09193 2.34377 7367 ft 281 kts 325°
2026-05-03 20:41 49.10993 2.33178 8281 ft 290 kts 348°
2026-05-03 20:41 49.13030 2.33316 9247 ft 299 kts 15°
2026-05-03 20:41 49.14875 2.34804 10154 ft 306 kts 41°
2026-05-03 20:42 49.16231 2.37400 10602 ft 327 kts 65°
2026-05-03 20:42 49.16882 2.40798 10823 ft 350 kts 87°
2026-05-03 20:42 49.16807 2.44571 11388 ft 359 kts 104°
2026-05-03 20:42 49.15919 2.48117 12213 ft 358 kts 121°
2026-05-03 20:43 49.14694 2.51432 13119 ft 360 kts 124°
2026-05-03 20:43 49.13425 2.54770 13980 ft 365 kts 123°
2026-05-03 20:43 49.12200 2.58204 14801 ft 370 kts 121°
2026-05-03 20:43 49.11022 2.61723 15639 ft 375 kts 120°
2026-05-03 20:44 49.09856 2.65304 16495 ft 379 kts 120°
2026-05-03 20:44 49.08690 2.68926 17308 ft 384 kts 120°
2026-05-03 20:44 49.07520 2.72619 18130 ft 388 kts 120°
2026-05-03 20:44 49.06341 2.76358 18832 ft 393 kts 120°
2026-05-03 20:45 49.05146 2.80149 19475 ft 399 kts 120°
2026-05-03 20:45 49.03948 2.83940 20107 ft 404 kts 120°
2026-05-03 20:45 49.02718 2.87820 20795 ft 409 kts 121°
2026-05-03 20:45 49.01474 2.91739 21462 ft 413 kts 121°
2026-05-03 20:46 49.00194 2.95759 22115 ft 419 kts 121°
2026-05-03 20:46 48.98930 2.99724 22745 ft 423 kts 121°
2026-05-03 20:46 48.97638 3.03770 23374 ft 428 kts 122°
2026-05-03 20:46 48.96324 3.07877 23895 ft 433 kts 121°
2026-05-03 20:47 48.95008 3.11993 24600 ft 431 kts 121°
2026-05-03 20:47 48.93691 3.16102 25212 ft 433 kts 121°
2026-05-03 20:47 48.92363 3.20231 25698 ft 437 kts 121°
2026-05-03 20:47 48.91015 3.24412 26168 ft 441 kts 121°
2026-05-03 20:48 48.89660 3.28613 26677 ft 444 kts 122°
2026-05-03 20:48 48.88291 3.32849 27190 ft 447 kts 122°
2026-05-03 20:48 48.86933 3.37048 27655 ft 450 kts 122°
2026-05-03 20:48 48.85546 3.41330 28124 ft 453 kts 122°
2026-05-03 20:49 48.84151 3.45632 28574 ft 456 kts 122°
2026-05-03 20:49 48.82741 3.49965 29001 ft 459 kts 122°
2026-05-03 20:49 48.81377 3.54386 29398 ft 467 kts 115°
2026-05-03 20:49 48.80696 3.59270 29851 ft 480 kts 100°
2026-05-03 20:50 48.80429 3.64300 30458 ft 478 kts 99°
2026-05-03 20:50 48.80179 3.69334 30889 ft 479 kts 99°
2026-05-03 20:50 48.79894 3.74383 30951 ft 483 kts 100°
2026-05-03 20:51 48.79207 3.84538 30961 ft 479 kts 104°
2026-05-03 20:51 48.78297 3.89294 30965 ft 463 kts 121°
2026-05-03 20:51 48.76773 3.93558 30981 ft 460 kts 126°
2026-05-03 20:52 48.73500 4.01929 30973 ft 463 kts 127°
2026-05-03 20:52 48.70228 4.10291 30968 ft 465 kts 127°
2026-05-03 20:53 48.66969 4.18761 30964 ft 467 kts 126°
2026-05-03 20:53 48.63721 4.27251 30967 ft 466 kts 126°
2026-05-03 20:54 48.60479 4.35709 30940 ft 463 kts 126°
2026-05-03 20:54 48.55619 4.48319 30955 ft 464 kts 126°
2026-05-03 20:55 48.52364 4.56725 30967 ft 465 kts 126°
2026-05-03 20:55 48.49085 4.65170 30984 ft 467 kts 126°
2026-05-03 20:56 48.45791 4.73628 30979 ft 469 kts 126°
2026-05-03 20:56 48.42480 4.82104 30963 ft 470 kts 126°
2026-05-03 20:57 48.39175 4.90538 30976 ft 471 kts 126°
2026-05-03 20:57 48.35833 4.99035 30995 ft 471 kts 126°
2026-05-03 20:58 48.32087 5.07049 30984 ft 467 kts 133°
2026-05-03 20:58 48.28104 5.14729 30989 ft 466 kts 134°
2026-05-03 20:59 48.24136 5.22411 30982 ft 464 kts 132°
2026-05-03 20:59 48.20225 5.30086 30987 ft 461 kts 132°
2026-05-03 21:00 48.17006 5.36422 30995 ft 459 kts 132°
2026-05-03 21:00 48.12517 5.45242 30995 ft 458 kts 132°
2026-05-03 21:01 48.08643 5.52825 30995 ft 458 kts 132°
2026-05-03 21:01 48.04770 5.60386 30994 ft 457 kts 132°
2026-05-03 21:02 48.02830 5.64163 30312 ft 463 kts 132°
2026-05-03 21:02 48.00868 5.67977 29440 ft 461 kts 132°
2026-05-03 21:02 47.98911 5.71778 28623 ft 457 kts 132°
2026-05-03 21:02 47.96988 5.75514 27935 ft 451 kts 132°
2026-05-03 21:03 47.95091 5.79194 27286 ft 444 kts 132°
2026-05-03 21:03 47.93214 5.82828 26609 ft 439 kts 133°
2026-05-03 21:03 47.91358 5.86413 25951 ft 434 kts 133°
2026-05-03 21:03 47.89519 5.89960 25310 ft 430 kts 133°
2026-05-03 21:04 47.87699 5.93467 24651 ft 426 kts 133°
2026-05-03 21:04 47.85895 5.96938 24024 ft 422 kts 133°
2026-05-03 21:04 47.84100 6.00386 23308 ft 420 kts 133°
2026-05-03 21:04 47.82313 6.03800 22592 ft 416 kts 132°
2026-05-03 21:05 47.80615 6.07279 21898 ft 416 kts 124°
2026-05-03 21:05 47.79498 6.11163 21145 ft 413 kts 110°
2026-05-03 21:05 47.78877 6.15319 20267 ft 413 kts 100°
2026-05-03 21:05 47.78758 6.19574 19381 ft 411 kts 91°
2026-05-03 21:06 47.78796 6.23800 18581 ft 405 kts 91°
2026-05-03 21:06 47.78838 6.27964 17727 ft 399 kts 91°
2026-05-03 21:06 47.78875 6.32031 16895 ft 393 kts 91°
2026-05-03 21:06 47.78904 6.36063 16062 ft 386 kts 91°
2026-05-03 21:07 47.78925 6.40040 15251 ft 381 kts 91°
2026-05-03 21:07 47.78941 6.43955 14516 ft 376 kts 92°
2026-05-03 21:07 47.78952 6.47812 13870 ft 371 kts 92°
2026-05-03 21:07 47.78961 6.51640 13207 ft 369 kts 92°
2026-05-03 21:08 47.78968 6.55445 12578 ft 367 kts 92°
2026-05-03 21:08 47.78973 6.59224 11953 ft 363 kts 92°
2026-05-03 21:08 47.78978 6.62965 11350 ft 360 kts 92°
2026-05-03 21:08 47.78981 6.66671 10775 ft 357 kts 92°
2026-05-03 21:09 47.78984 6.70310 10557 ft 343 kts 92°
2026-05-03 21:09 47.78962 6.73732 10378 ft 330 kts 97°
2026-05-03 21:09 47.78493 6.77052 10145 ft 332 kts 110°
2026-05-03 21:09 47.77797 6.80388 9916 ft 339 kts 111°
2026-05-03 21:10 47.77085 6.83687 9591 ft 328 kts 111°
2026-05-03 21:10 47.76411 6.86841 9258 ft 313 kts 111°
2026-05-03 21:10 47.75771 6.89873 8925 ft 301 kts 111°
2026-05-03 21:10 47.75156 6.92811 8638 ft 296 kts 112°
2026-05-03 21:11 47.74548 6.95727 8337 ft 294 kts 112°
2026-05-03 21:11 47.73944 6.98640 8034 ft 294 kts 112°
2026-05-03 21:11 47.73343 7.01545 7731 ft 293 kts 112°
2026-05-03 21:11 47.72747 7.04434 7439 ft 293 kts 112°
2026-05-03 21:12 47.72152 7.07320 7132 ft 292 kts 112°
2026-05-03 21:12 47.71558 7.10203 6862 ft 291 kts 112°
2026-05-03 21:12 47.70963 7.13083 6474 ft 293 kts 113°
2026-05-03 21:12 47.70390 7.15875 6365 ft 271 kts 111°
2026-05-03 21:13 47.69868 7.18419 6224 ft 253 kts 111°
2026-05-03 21:13 47.69363 7.20864 5996 ft 239 kts 112°
2026-05-03 21:13 47.68867 7.23237 5383 ft 248 kts 111°
2026-05-03 21:13 47.68355 7.25686 4898 ft 249 kts 111°
2026-05-03 21:14 47.67855 7.28087 4642 ft 238 kts 110°
2026-05-03 21:14 47.67377 7.30388 4337 ft 226 kts 110°
2026-05-03 21:14 47.66925 7.32558 4090 ft 213 kts 110°
2026-05-03 21:14 47.66499 7.34602 3828 ft 202 kts 110°
2026-05-03 21:15 47.66092 7.36545 3560 ft 193 kts 110°
2026-05-03 21:15 47.65702 7.38396 3308 ft 185 kts 110°
2026-05-03 21:15 47.65331 7.40175 3077 ft 178 kts 109°
2026-05-03 21:15 47.64962 7.41903 2801 ft 174 kts 111°
2026-05-03 21:16 47.64589 7.43578 2587 ft 167 kts 110°
2026-05-03 21:16 47.64222 7.45184 2475 ft 163 kts 111°
2026-05-03 21:16 47.63850 7.46777 2499 ft 166 kts 111°
2026-05-03 21:16 47.63471 7.48412 2513 ft 168 kts 111°
2026-05-03 21:17 47.63084 7.50044 2485 ft 168 kts 113°
2026-05-03 21:17 47.62790 7.51099 2485 ft 166 kts 115°
2026-05-03 21:17 47.62203 7.53130 2552 ft 149 kts 116°
2026-05-03 21:17 47.62049 7.54586 2413 ft 143 kts 79°
2026-05-03 21:18 47.62286 7.55979 2280 ft 137 kts 77°
2026-05-03 21:18 47.62416 7.56863 2334 ft 129 kts 78°
2026-05-03 21:18 47.62590 7.58191 2382 ft 133 kts 80°
2026-05-03 21:18 47.62644 7.59544 2343 ft 134 kts 110°
2026-05-03 21:19 47.61975 7.60445 2174 ft 137 kts 163°
2026-05-03 21:19 47.61042 7.60330 1845 ft 135 kts 202°
2026-05-03 21:19 47.60291 7.59545 1609 ft 131 kts 228°
2026-05-03 21:19 47.59846 7.58371 1510 ft 133 kts 254°
2026-05-03 21:20 47.59640 7.57045 1381 ft 131 kts 257°
2026-05-03 21:20 47.59433 7.55742 1199 ft 132 kts 257°
2026-05-03 21:20 47.59225 7.54424 1009 ft 132 kts 256°
2026-05-03 21:20 47.59017 7.53110 884 ft 120 kts 257°
2026-05-03 21:21 47.58876 7.52218 883 ft 58 kts 257°
2026-05-03 21:21 47.58819 7.51842 880 ft 19 kts 258°
2026-05-03 21:21 47.58834 7.51700 879 ft 15 kts 325°
2026-05-03 21:21 47.58930 7.51674 883 ft 14 kts
2026-05-03 21:22 47.59005 7.51761 883 ft 14 kts 45°
2026-05-03 21:22 47.59070 7.51858 883 ft 13 kts 45°
2026-05-03 21:22 47.59133 7.51952 883 ft 13 kts 44°
2026-05-03 21:22 47.59197 7.52046 883 ft 14 kts 44°
2026-05-03 21:23 47.59268 7.52165 883 ft 16 kts 57°
2026-05-03 21:23 47.59317 7.52323 883 ft 17 kts 65°
2026-05-03 21:23 47.59369 7.52489 883 ft 18 kts 65°
2026-05-03 21:23 47.59422 7.52655 886 ft 17 kts 65°
2026-05-03 21:24 47.59445 7.52726 886 ft 1 kts 64°
2026-05-03 21:24 47.59456 7.52760 885 ft 6 kts 64°
2026-05-03 21:24 47.59479 7.52831 884 ft 9 kts 64°
2026-05-03 21:24 47.59504 7.52906 883 ft 7 kts 67°
2026-05-03 21:25 47.59487 7.52970 881 ft 7 kts 157°
2026-05-03 21:25 47.59436 7.53003 881 ft 7 kts 156°
2026-05-03 21:25 47.59400 7.53049 881 ft 2 kts 128°
2026-05-03 21:25 47.59399 7.53052 881 ft 0 kts 128°